Time,TemperatureF,DewpointF,PressureIn,WindDirection,WindDirectionDegrees,WindSpeedMPH,WindSpeedGustMPH,Humidity,HourlyPrecipIn,Conditions,Clouds,dailyrainin,SoftwareType,DateUTC
2013-02-06 00:02:00,25.0,23.0,29.51,SSW,205,0.0,-999.0,92,-99.99,,,-99.99,,2013-02-06 05:02:00,
2013-02-06 00:12:00,25.0,23.0,29.51,SSW,205,0.0,-999.0,92,-99.99,,,-99.99,,2013-02-06 05:12:00,
2013-02-06 00:22:00,25.0,23.0,29.51,SSW,205,0.0,-999.0,92,-99.99,,,-99.99,,2013-02-06 05:22:00,
2013-02-06 00:32:00,25.0,23.0,29.51,SSW,205,0.0,-999.0,92,-99.99,,,-99.99,,2013-02-06 05:32:00,
2013-02-06 00:42:00,25.0,23.0,29.51,SSW,205,0.0,-999.0,92,-99.99,,,-99.99,,2013-02-06 05:42:00,
2013-02-06 00:53:00,25.0,23.0,29.51,SSW,205,0.0,-999.0,92,-99.99,,,-99.99,,2013-02-06 05:53:00,
2013-02-06 01:01:00,25.0,23.0,29.51,SSW,205,0.0,-999.0,92,-99.99,,,-99.99,,2013-02-06 06:01:00,
2013-02-06 01:11:00,25.0,23.0,29.51,SSW,205,0.0,-999.0,92,-99.99,,,-99.99,,2013-02-06 06:11:00,
2013-02-06 01:22:00,25.0,23.0,29.50,SSW,205,0.0,-999.0,93,-99.99,,,-99.99,,2013-02-06 06:22:00,
2013-02-06 01:32:00,25.0,23.0,29.50,SSW,205,0.0,-999.0,93,-99.99,,,-99.99,,2013-02-06 06:32:00,
2013-02-06 01:42:00,25.0,23.0,29.50,SSW,205,0.0,-999.0,93,-99.99,,,-99.99,,2013-02-06 06:42:00,
2013-02-06 01:52:00,25.0,23.0,29.51,SSW,205,0.0,-999.0,93,-99.99,,,-99.99,,2013-02-06 06:52:00,
2013-02-06 02:01:00,25.0,23.0,29.51,SSW,205,0.0,-999.0,93,-99.99,,,-99.99,,2013-02-06 07:01:00,
2013-02-06 02:11:00,25.0,23.0,29.51,SSW,205,0.0,-999.0,93,-99.99,,,-99.99,,2013-02-06 07:11:00,
2013-02-06 02:22:00,25.0,23.0,29.50,SSW,205,0.0,-999.0,93,-99.99,,,-99.99,,2013-02-06 07:22:00,
2013-02-06 02:32:00,25.0,23.0,29.50,SSW,205,0.0,-999.0,93,-99.99,,,-99.99,,2013-02-06 07:32:00,
2013-02-06 02:42:00,25.0,23.0,29.50,SSW,205,0.0,-999.0,93,-99.99,,,-99.99,,2013-02-06 07:42:00,
2013-02-06 02:52:00,26.0,24.0,29.49,SSW,205,1.0,-999.0,93,-99.99,,,-99.99,,2013-02-06 07:52:00,
2013-02-06 03:01:00,25.0,23.0,29.49,SSW,205,0.0,-999.0,92,-99.99,,,-99.99,,2013-02-06 08:01:00,
2013-02-06 03:11:00,25.0,23.0,29.49,SSW,205,0.0,-999.0,92,-99.99,,,-99.99,,2013-02-06 08:11:00,
2013-02-06 03:21:00,25.0,23.0,29.50,SSW,205,0.0,-999.0,93,-99.99,,,-99.99,,2013-02-06 08:21:00,
2013-02-06 03:31:00,25.0,23.0,29.50,SSW,205,0.0,-999.0,93,-99.99,,,-99.99,,2013-02-06 08:31:00,
2013-02-06 03:42:00,25.0,23.0,29.50,SSW,205,0.0,-999.0,93,-99.99,,,-99.99,,2013-02-06 08:42:00,
2013-02-06 03:53:00,25.0,23.0,29.51,SSW,205,0.0,-999.0,93,-99.99,,,-99.99,,2013-02-06 08:53:00,
2013-02-06 04:02:00,25.0,23.0,29.51,SSW,205,0.0,-999.0,93,-99.99,,,-99.99,,2013-02-06 09:02:00,
2013-02-06 04:11:00,25.0,23.0,29.51,SSW,205,0.0,-999.0,93,-99.99,,,-99.99,,2013-02-06 09:11:00,
2013-02-06 04:21:00,24.0,22.0,29.52,SSW,205,0.0,-999.0,93,-99.99,,,-99.99,,2013-02-06 09:21:00,
2013-02-06 04:32:00,23.0,21.0,29.52,SSW,205,0.0,-999.0,92,-99.99,,,-99.99,,2013-02-06 09:32:00,
2013-02-06 04:42:00,23.0,21.0,29.52,SSW,205,0.0,-999.0,92,-99.99,,,-99.99,,2013-02-06 09:42:00,
2013-02-06 04:52:00,23.0,21.0,29.52,SSW,205,0.0,-999.0,93,-99.99,,,-99.99,,2013-02-06 09:52:00,
2013-02-06 05:01:00,23.0,22.0,29.52,SSW,205,1.0,-999.0,94,-99.99,,,-99.99,,2013-02-06 10:01:00,
2013-02-06 05:11:00,23.0,22.0,29.52,SSW,205,1.0,-999.0,94,-99.99,,,-99.99,,2013-02-06 10:11:00,
2013-02-06 05:22:00,23.0,22.0,29.53,SSW,205,0.0,-999.0,94,-99.99,,,-99.99,,2013-02-06 10:22:00,
2013-02-06 05:32:00,23.0,22.0,29.54,SSW,205,0.0,-999.0,94,-99.99,,,-99.99,,2013-02-06 10:32:00,
2013-02-06 05:42:00,23.0,22.0,29.54,SSW,205,0.0,-999.0,94,-99.99,,,-99.99,,2013-02-06 10:42:00,
2013-02-06 05:52:00,23.0,22.0,29.54,SSW,196,1.0,-999.0,95,-99.99,,,-99.99,,2013-02-06 10:52:00,
2013-02-06 06:01:00,24.0,23.0,29.55,SSW,196,0.0,-999.0,95,-99.99,,,-99.99,,2013-02-06 11:01:00,
2013-02-06 06:11:00,24.0,23.0,29.55,SSW,196,0.0,-999.0,95,-99.99,,,-99.99,,2013-02-06 11:11:00,
2013-02-06 06:22:00,24.0,23.0,29.55,SSW,194,0.0,-999.0,95,-99.99,,,-99.99,,2013-02-06 11:22:00,
2013-02-06 06:32:00,24.0,23.0,29.56,SSW,194,0.0,-999.0,95,-99.99,,,-99.99,,2013-02-06 11:32:00,
2013-02-06 06:42:00,24.0,23.0,29.56,SSW,194,0.0,-999.0,95,-99.99,,,-99.99,,2013-02-06 11:42:00,
2013-02-06 06:53:00,23.0,22.0,29.56,SSW,194,0.0,-999.0,94,-99.99,,,-99.99,,2013-02-06 11:53:00,
2013-02-06 07:02:00,22.0,20.0,29.56,SSW,194,0.0,-999.0,93,-99.99,,,-99.99,,2013-02-06 12:02:00,
2013-02-06 07:12:00,22.0,20.0,29.56,SSW,194,0.0,-999.0,93,-99.99,,,-99.99,,2013-02-06 12:12:00,
2013-02-06 07:22:00,20.0,18.0,29.57,SSW,194,0.0,-999.0,92,-99.99,,,-99.99,,2013-02-06 12:22:00,
2013-02-06 07:32:00,19.0,17.0,29.59,SSW,194,0.0,-999.0,93,-99.99,,,-99.99,,2013-02-06 12:32:00,
2013-02-06 07:42:00,19.0,17.0,29.59,SSW,194,0.0,-999.0,93,-99.99,,,-99.99,,2013-02-06 12:42:00,
2013-02-06 07:52:00,20.0,19.0,29.59,SSW,194,0.0,-999.0,94,-99.99,,,-99.99,,2013-02-06 12:52:00,
2013-02-06 08:01:00,21.0,20.0,29.60,South,184,1.0,-999.0,96,-99.99,,,-99.99,,2013-02-06 13:01:00,
2013-02-06 08:12:00,21.0,20.0,29.60,South,184,1.0,-999.0,96,-99.99,,,-99.99,,2013-02-06 13:12:00,
2013-02-06 08:22:00,23.0,22.0,29.60,South,169,2.0,-999.0,96,-99.99,,,-99.99,,2013-02-06 13:22:00,
2013-02-06 08:32:00,24.0,23.0,29.61,South,170,1.0,-999.0,96,-99.99,,,-99.99,,2013-02-06 13:32:00,
2013-02-06 08:42:00,24.0,23.0,29.61,South,170,1.0,-999.0,96,-99.99,,,-99.99,,2013-02-06 13:42:00,
2013-02-06 08:52:00,25.0,24.0,29.62,SSW,211,1.0,-999.0,96,-99.99,,,-99.99,,2013-02-06 13:52:00,
2013-02-06 09:02:00,27.0,25.0,29.62,South,183,3.0,-999.0,93,-99.99,,,-99.99,,2013-02-06 14:02:00,
2013-02-06 09:11:00,27.0,25.0,29.62,South,183,3.0,-999.0,93,-99.99,,,-99.99,,2013-02-06 14:11:00,
2013-02-06 09:22:00,28.0,25.0,29.62,South,188,2.0,-999.0,90,-99.99,,,-99.99,,2013-02-06 14:22:00,
2013-02-06 09:32:00,28.0,25.0,29.62,South,187,1.0,-999.0,88,-99.99,,,-99.99,,2013-02-06 14:32:00,
2013-02-06 09:42:00,28.0,25.0,29.62,South,187,1.0,-999.0,88,-99.99,,,-99.99,,2013-02-06 14:42:00,
2013-02-06 09:52:00,29.0,26.0,29.63,South,184,1.0,-999.0,87,-99.99,,,-99.99,,2013-02-06 14:52:00,
2013-02-06 10:02:00,29.0,25.0,29.64,SW,219,1.0,-999.0,86,-99.99,,,-99.99,,2013-02-06 15:02:00,
2013-02-06 10:11:00,29.0,25.0,29.64,SW,219,1.0,-999.0,86,-99.99,,,-99.99,,2013-02-06 15:11:00,
2013-02-06 10:21:00,30.0,26.0,29.65,SW,217,1.0,-999.0,85,-99.99,,,-99.99,,2013-02-06 15:21:00,
2013-02-06 10:32:00,31.0,27.0,29.65,SW,236,1.0,-999.0,85,-99.99,,,-99.99,,2013-02-06 15:32:00,
2013-02-06 10:42:00,31.0,27.0,29.65,SW,236,1.0,-999.0,85,-99.99,,,-99.99,,2013-02-06 15:42:00,
2013-02-06 10:52:00,31.0,26.0,29.65,SSW,194,0.0,-999.0,82,-99.99,,,-99.99,,2013-02-06 15:52:00,
2013-02-06 11:01:00,32.0,26.0,29.65,South,190,2.0,-999.0,79,-99.99,,,-99.99,,2013-02-06 16:01:00,
2013-02-06 11:11:00,32.0,26.0,29.65,South,190,2.0,-999.0,79,-99.99,,,-99.99,,2013-02-06 16:11:00,
2013-02-06 11:21:00,33.0,27.0,29.65,NW,319,1.0,-999.0,78,-99.99,,,-99.99,,2013-02-06 16:21:00,
2013-02-06 11:32:00,33.0,27.0,29.65,NW,319,1.0,-999.0,78,-99.99,,,-99.99,,2013-02-06 16:32:00,
2013-02-06 11:42:00,33.0,27.0,29.65,NW,319,1.0,-999.0,78,-99.99,,,-99.99,,2013-02-06 16:42:00,
2013-02-06 11:52:00,34.0,26.0,29.65,WNW,288,2.0,-999.0,73,-99.99,,,-99.99,,2013-02-06 16:52:00,
2013-02-06 12:02:00,34.0,26.0,29.65,WNW,301,2.0,-999.0,72,-99.99,,,-99.99,,2013-02-06 17:02:00,
2013-02-06 12:12:00,34.0,26.0,29.65,WNW,301,2.0,-999.0,72,-99.99,,,-99.99,,2013-02-06 17:12:00,
2013-02-06 12:22:00,36.0,28.0,29.65,NW,311,2.0,-999.0,73,-99.99,,,-99.99,,2013-02-06 17:22:00,
2013-02-06 12:32:00,36.0,27.0,29.65,WNW,296,2.0,-999.0,69,-99.99,,,-99.99,,2013-02-06 17:32:00,
2013-02-06 12:42:00,36.0,27.0,29.65,WNW,296,2.0,-999.0,69,-99.99,,,-99.99,,2013-02-06 17:42:00,
2013-02-06 12:52:00,35.0,25.0,29.65,WNW,285,1.0,-999.0,66,-99.99,,,-99.99,,2013-02-06 17:52:00,
2013-02-06 13:01:00,35.0,24.0,29.65,NW,306,2.0,-999.0,64,-99.99,,,-99.99,,2013-02-06 18:01:00,
2013-02-06 13:11:00,35.0,24.0,29.65,WNW,295,2.0,-999.0,65,-99.99,,,-99.99,,2013-02-06 18:11:00,
2013-02-06 13:23:00,35.0,24.0,29.65,WNW,295,2.0,-999.0,65,-99.99,,,-99.99,,2013-02-06 18:23:00,
2013-02-06 13:32:00,35.0,24.0,29.65,WNW,294,2.0,-999.0,65,-99.99,,,-99.99,,2013-02-06 18:32:00,
2013-02-06 13:42:00,35.0,24.0,29.65,WNW,294,2.0,-999.0,65,-99.99,,,-99.99,,2013-02-06 18:42:00,
2013-02-06 13:52:00,36.0,24.0,29.65,WNW,293,4.0,-999.0,61,-99.99,,,-99.99,,2013-02-06 18:52:00,
2013-02-06 14:02:00,35.0,23.0,29.66,NW,309,3.0,-999.0,62,-99.99,,,-99.99,,2013-02-06 19:02:00,
2013-02-06 14:11:00,35.0,23.0,29.66,NW,309,3.0,-999.0,62,-99.99,,,-99.99,,2013-02-06 19:11:00,
2013-02-06 14:21:00,35.0,22.0,29.66,WNW,300,3.0,-999.0,58,-99.99,,,-99.99,,2013-02-06 19:21:00,
2013-02-06 14:32:00,34.0,20.0,29.67,NW,311,2.0,-999.0,57,-99.99,,,-99.99,,2013-02-06 19:32:00,
2013-02-06 14:42:00,34.0,20.0,29.67,NW,311,2.0,-999.0,57,-99.99,,,-99.99,,2013-02-06 19:42:00,
2013-02-06 14:52:00,34.0,19.0,29.68,NW,324,3.0,-999.0,53,-99.99,,,-99.99,,2013-02-06 19:52:00,
2013-02-06 15:01:00,36.0,19.0,29.68,NW,313,3.0,-999.0,50,-99.99,,,-99.99,,2013-02-06 20:01:00,
2013-02-06 15:11:00,34.0,18.0,29.69,WNW,298,3.0,-999.0,52,-99.99,,,-99.99,,2013-02-06 20:11:00,
2013-02-06 15:21:00,34.0,18.0,29.69,WNW,298,3.0,-999.0,52,-99.99,,,-99.99,,2013-02-06 20:21:00,
2013-02-06 15:32:00,35.0,20.0,29.69,West,281,2.0,-999.0,53,-99.99,,,-99.99,,2013-02-06 20:32:00,
2013-02-06 15:42:00,35.0,20.0,29.69,West,281,2.0,-999.0,53,-99.99,,,-99.99,,2013-02-06 20:42:00,
2013-02-06 15:52:00,36.0,19.0,29.70,NW,312,5.0,-999.0,49,-99.99,,,-99.99,,2013-02-06 20:52:00,
2013-02-06 16:02:00,35.0,17.0,29.71,NW,311,5.0,-999.0,47,-99.99,,,-99.99,,2013-02-06 21:02:00,
2013-02-06 16:11:00,35.0,17.0,29.71,NW,311,5.0,-999.0,47,-99.99,,,-99.99,,2013-02-06 21:11:00,
2013-02-06 16:21:00,34.0,16.0,29.72,WNW,284,4.0,-999.0,48,-99.99,,,-99.99,,2013-02-06 21:21:00,
2013-02-06 16:32:00,34.0,16.0,29.73,NW,313,5.0,-999.0,48,-99.99,,,-99.99,,2013-02-06 21:32:00,
2013-02-06 16:42:00,34.0,16.0,29.73,NW,313,5.0,-999.0,48,-99.99,,,-99.99,,2013-02-06 21:42:00,
2013-02-06 16:52:00,34.0,16.0,29.74,West,281,3.0,-999.0,48,-99.99,,,-99.99,,2013-02-06 21:52:00,
2013-02-06 17:01:00,33.0,15.0,29.74,NW,305,4.0,-999.0,48,-99.99,,,-99.99,,2013-02-06 22:01:00,
2013-02-06 17:11:00,33.0,15.0,29.74,NW,305,4.0,-999.0,48,-99.99,,,-99.99,,2013-02-06 22:11:00,
2013-02-06 17:22:00,32.0,16.0,29.75,WNW,299,3.0,-999.0,51,-99.99,,,-99.99,,2013-02-06 22:22:00,
2013-02-06 17:32:00,32.0,15.0,29.77,NNW,330,3.0,-999.0,50,-99.99,,,-99.99,,2013-02-06 22:32:00,
2013-02-06 17:42:00,32.0,15.0,29.77,NNW,330,3.0,-999.0,50,-99.99,,,-99.99,,2013-02-06 22:42:00,
2013-02-06 17:52:00,31.0,15.0,29.78,North,355,3.0,-999.0,51,-99.99,,,-99.99,,2013-02-06 22:52:00,
2013-02-06 18:01:00,30.0,14.0,29.78,NW,304,1.0,-999.0,51,-99.99,,,-99.99,,2013-02-06 23:01:00,
2013-02-06 18:11:00,30.0,14.0,29.78,NW,304,1.0,-999.0,51,-99.99,,,-99.99,,2013-02-06 23:11:00,
2013-02-06 18:21:00,29.0,14.0,29.79,NW,309,1.0,-999.0,53,-99.99,,,-99.99,,2013-02-06 23:21:00,
2013-02-06 18:32:00,29.0,14.0,29.81,NW,317,0.0,-999.0,54,-99.99,,,-99.99,,2013-02-06 23:32:00,
2013-02-06 18:42:00,29.0,14.0,29.81,NW,317,0.0,-999.0,54,-99.99,,,-99.99,,2013-02-06 23:42:00,
2013-02-06 18:52:00,28.0,14.0,29.82,NW,317,0.0,-999.0,56,-99.99,,,-99.99,,2013-02-06 23:52:00,
2013-02-06 19:02:00,27.0,14.0,29.83,NW,317,0.0,-999.0,58,-99.99,,,-99.99,,2013-02-07 00:02:00,
2013-02-06 19:11:00,27.0,14.0,29.83,NW,317,0.0,-999.0,58,-99.99,,,-99.99,,2013-02-07 00:11:00,
2013-02-06 19:22:00,26.0,12.0,29.84,NW,312,1.0,-999.0,56,-99.99,,,-99.99,,2013-02-07 00:22:00,
2013-02-06 19:32:00,27.0,13.0,29.85,NW,320,1.0,-999.0,54,-99.99,,,-99.99,,2013-02-07 00:32:00,
2013-02-06 19:42:00,27.0,13.0,29.85,NW,320,1.0,-999.0,54,-99.99,,,-99.99,,2013-02-07 00:42:00,
2013-02-06 19:52:00,27.0,11.0,29.85,North,351,2.0,-999.0,50,-99.99,,,-99.99,,2013-02-07 00:52:00,
2013-02-06 20:01:00,27.0,10.0,29.85,NW,310,2.0,-999.0,48,-99.99,,,-99.99,,2013-02-07 01:01:00,
2013-02-06 20:11:00,27.0,10.0,29.85,NW,310,2.0,-999.0,48,-99.99,,,-99.99,,2013-02-07 01:11:00,
2013-02-06 20:21:00,27.0,10.0,29.86,NW,309,2.0,-999.0,48,-99.99,,,-99.99,,2013-02-07 01:21:00,
2013-02-06 20:32:00,27.0,9.0,29.88,NW,320,2.0,-999.0,47,-99.99,,,-99.99,,2013-02-07 01:32:00,
2013-02-06 20:42:00,27.0,9.0,29.88,NW,320,2.0,-999.0,47,-99.99,,,-99.99,,2013-02-07 01:42:00,
2013-02-06 20:52:00,26.0,9.0,29.89,WNW,300,1.0,-999.0,49,-99.99,,,-99.99,,2013-02-07 01:52:00,
2013-02-06 21:01:00,25.0,8.0,29.90,NW,325,1.0,-999.0,48,-99.99,,,-99.99,,2013-02-07 02:01:00,
2013-02-06 21:11:00,25.0,8.0,29.90,NW,325,1.0,-999.0,48,-99.99,,,-99.99,,2013-02-07 02:11:00,
2013-02-06 21:21:00,25.0,7.0,29.90,NW,323,1.0,-999.0,45,-99.99,,,-99.99,,2013-02-07 02:21:00,
2013-02-06 21:32:00,25.0,6.0,29.90,WNW,290,1.0,-999.0,44,-99.99,,,-99.99,,2013-02-07 02:32:00,
2013-02-06 21:42:00,25.0,6.0,29.90,WNW,290,1.0,-999.0,44,-99.99,,,-99.99,,2013-02-07 02:42:00,
2013-02-06 21:52:00,25.0,6.0,29.90,WNW,290,1.0,-999.0,44,-99.99,,,-99.99,,2013-02-07 02:52:00,
2013-02-06 22:02:00,24.0,6.0,29.91,WNW,293,0.0,-999.0,46,-99.99,,,-99.99,,2013-02-07 03:02:00,
2013-02-06 22:11:00,24.0,6.0,29.91,WNW,293,0.0,-999.0,46,-99.99,,,-99.99,,2013-02-07 03:11:00,
2013-02-06 22:21:00,24.0,4.0,29.92,NNW,337,1.0,-999.0,42,-99.99,,,-99.99,,2013-02-07 03:21:00,
2013-02-06 22:32:00,24.0,5.0,29.92,WNW,301,1.0,-999.0,43,-99.99,,,-99.99,,2013-02-07 03:32:00,
2013-02-06 22:42:00,24.0,5.0,29.92,WNW,301,1.0,-999.0,43,-99.99,,,-99.99,,2013-02-07 03:42:00,
2013-02-06 22:52:00,24.0,4.0,29.92,NNW,341,3.0,-999.0,41,-99.99,,,-99.99,,2013-02-07 03:52:00,
2013-02-06 23:01:00,24.0,4.0,29.93,NNW,329,3.0,-999.0,41,-99.99,,,-99.99,,2013-02-07 04:01:00,
2013-02-06 23:11:00,24.0,4.0,29.93,NNW,329,3.0,-999.0,41,-99.99,,,-99.99,,2013-02-07 04:11:00,
2013-02-06 23:22:00,24.0,4.0,29.93,NNW,344,2.0,-999.0,42,-99.99,,,-99.99,,2013-02-07 04:22:00,
2013-02-06 23:32:00,23.0,3.0,29.93,NNE,24,1.0,-999.0,41,-99.99,,,-99.99,,2013-02-07 04:32:00,
2013-02-06 23:42:00,23.0,3.0,29.93,NNE,24,1.0,-999.0,41,-99.99,,,-99.99,,2013-02-07 04:42:00,
2013-02-06 23:53:00,23.0,2.0,29.94,North,5,0.0,-999.0,39,-99.99,,,-99.99,,2013-02-07 04:53:00,